East Middlebury, VT

11:42 PM EDT on August 30, 2016 (GMT -0400)
Middlebury State AP, Middlebu

Weather History for K6B0 - April, 2014

Change the Weather History Date:

Tuesday, April 15, 2014

  Actual Average (KMPV) Record (KMPV)
Temperature  
Mean Temperature 48 °F 42 °F  
Max Temperature 66 °F 53 °F 78 °F (2003)
Min Temperature 30 °F 32 °F 19 °F (1981)
Degree Days  
Heating Degree Days 16 23  
Month to date heating degree days 389  
Since 1 July heating degree days 7414  
Cooling Degree Days 0 0  
Month to date cooling degree days 0  
Year to date cooling degree days 0  
Moisture  
Dew Point 50 °F    
Average Humidity 87    
Maximum Humidity 100    
Minimum Humidity 62    
Precipitation  
Precipitation 1.37 in 0.09 in 0.92 in (2007)
Month to date precipitation 1.30  
Year to date precipitation 8.18  
Sea Level Pressure  
Sea Level Pressure 29.63 in    
Wind  
Wind Speed 8 mph (SE)    
Max Wind Speed 16 mph    
Max Gust Speed 26 mph    
Visibility 7 miles    
Events Rain , Snow    
T = Trace of Precipitation, MM = Missing Value Source: NWS Daily Summary

Daily Weather History Graph

Daily Weather History Graph

Search for Another Location

Airport or City:

Trip Planner

Search our weather history database for the weather conditions in past years. The results will help you decide how hot, cold, wet, or windy it might be!

Date:

Astronomy

Apr. 15, 2014 Rise Set
Actual Time 6:09 AM EDT 7:36 PM EDT
Civil Twilight 5:39 AM EDT 8:06 PM EDT
Nautical Twilight 5:02 AM EDT 8:42 PM EDT
Astronomical Twilight 4:24 AM EDT 9:21 PM EDT
Moon 8:15 PM EDT (4/15) 6:15 AM EDT (4/15)
Length of Visible Light 14h 27m
Length of Day
13h 27m
Full, 100% of the Moon is Illuminated
Apr 15
Full
Apr 22
Last Quarter
Apr 29
New
May 6
First Quarter
May 14
Full

Hourly Weather History & Observations

Time (EDT) Temp. Windchill Dew Point Humidity Pressure Visibility Wind Dir Wind Speed Gust Speed Precip Events Conditions
12:15 AM 65.5 °F - 53.8 °F 66% 29.72 in 10.0 mi Calm Calm - N/A   Overcast
12:35 AM 65.3 °F - 54.0 °F 67% 29.71 in 10.0 mi SSE 4.6 mph - N/A   Overcast
1:15 AM 65.3 °F - 52.3 °F 63% 29.71 in 10.0 mi ESE 10.4 mph - N/A   Overcast
1:35 AM 65.5 °F - 52.2 °F 62% 29.71 in 10.0 mi SE 10.4 mph - N/A   Overcast
1:55 AM 65.3 °F - 52.2 °F 62% 29.71 in 10.0 mi SE 12.7 mph - N/A   Overcast
2:15 AM 65.1 °F - 52.2 °F 63% 29.70 in 10.0 mi ESE 9.2 mph - N/A   Overcast
2:35 AM 64.6 °F - 52.5 °F 65% 29.69 in 10.0 mi ESE 9.2 mph - N/A   Overcast
2:55 AM 63.7 °F - 52.7 °F 67% 29.69 in 10.0 mi SE 9.2 mph - N/A   Overcast
3:15 AM 64.8 °F - 52.9 °F 65% 29.68 in 10.0 mi ESE 11.5 mph 18.4 mph N/A Rain Light Rain
3:35 AM 63.7 °F - 53.6 °F 70% 29.68 in 10.0 mi ESE 4.6 mph - N/A Rain Light Rain
3:55 AM 63.3 °F - 53.8 °F 71% 29.67 in 10.0 mi ESE 4.6 mph - N/A Rain Light Rain
4:15 AM 63.1 °F - 54.1 °F 72% 29.67 in 10.0 mi ESE 9.2 mph - N/A Rain Light Rain
4:35 AM 62.1 °F - 55.4 °F 79% 29.66 in 10.0 mi ESE 10.4 mph 17.3 mph N/A Rain Light Rain
4:55 AM 61.7 °F - 56.1 °F 82% 29.65 in 10.0 mi ESE 10.4 mph 18.4 mph 0.01 in Rain Light Rain
5:15 AM 61.9 °F - 55.8 °F 80% 29.64 in 10.0 mi ESE 10.4 mph 17.3 mph N/A Rain Rain
5:35 AM 62.6 °F - 55.6 °F 78% 29.65 in 10.0 mi ESE 9.2 mph - N/A Rain Light Rain
5:55 AM 62.8 °F - 55.6 °F 77% 29.64 in 10.0 mi ESE 13.8 mph 19.6 mph N/A Rain Rain
6:15 AM 62.6 °F - 56.3 °F 80% 29.62 in 10.0 mi East 10.4 mph 17.3 mph N/A Rain Rain
6:35 AM 63.9 °F - 55.6 °F 74% 29.61 in 10.0 mi ESE 11.5 mph 18.4 mph N/A Rain Light Rain
6:55 AM 64.6 °F - 55.6 °F 73% 29.61 in 10.0 mi ESE 12.7 mph 21.9 mph N/A   Overcast
7:15 AM 64.9 °F - 55.6 °F 72% 29.61 in 10.0 mi East 11.5 mph 20.7 mph N/A   Overcast
7:35 AM 65.3 °F - 55.6 °F 71% 29.59 in 10.0 mi ESE 12.7 mph 19.6 mph N/A   Overcast
7:55 AM 65.3 °F - 55.8 °F 71% 29.58 in 10.0 mi ESE 16.1 mph 26.5 mph N/A   Mostly Cloudy
8:15 AM 65.1 °F - 55.9 °F 72% 29.56 in 10.0 mi ESE 15.0 mph 24.2 mph N/A Rain Light Rain
8:35 AM 66.0 °F - 55.9 °F 70% 29.55 in 10.0 mi ESE 12.7 mph 26.5 mph N/A Rain Light Rain
8:55 AM 64.0 °F - 56.8 °F 77% 29.55 in 10.0 mi ESE 11.5 mph 20.7 mph N/A Rain Light Rain
9:15 AM 63.9 °F - 56.7 °F 77% 29.54 in 10.0 mi ESE 10.4 mph - N/A   Overcast
9:35 AM 64.4 °F - 56.3 °F 75% 29.54 in 10.0 mi ESE 10.4 mph - N/A   Overcast
9:55 AM 63.9 °F - 56.5 °F 77% 29.54 in 10.0 mi ESE 10.4 mph 16.1 mph N/A Rain Light Rain
10:15 AM 62.8 °F - 58.3 °F 85% 29.53 in 10.0 mi ESE 9.2 mph 18.4 mph 0.01 in Rain Rain
10:35 AM 62.6 °F - 59.9 °F 91% 29.52 in 10.0 mi ESE 13.8 mph 17.3 mph 0.01 in Rain Rain
10:55 AM 62.6 °F - 60.4 °F 93% 29.51 in 10.0 mi ESE 10.4 mph - 0.03 in Rain Light Rain
11:15 AM 63.1 °F - 60.8 °F 92% 29.49 in 10.0 mi East 11.5 mph 19.6 mph 0.02 in Rain Rain
11:35 AM 63.1 °F - 60.8 °F 92% 29.48 in 7.0 mi ESE 13.8 mph 21.9 mph 0.04 in Rain Rain
11:55 AM 63.1 °F - 60.8 °F 92% 29.46 in 7.0 mi ESE 10.4 mph 18.4 mph 0.08 in Rain Rain
12:35 PM 63.1 °F - 61.0 °F 93% 29.44 in 10.0 mi ESE 11.5 mph 18.4 mph 0.04 in Rain Rain
12:55 PM 63.5 °F - 61.2 °F 92% 29.42 in 7.0 mi East 10.4 mph - 0.07 in Rain Rain
1:35 PM 63.5 °F - 61.3 °F 93% 29.38 in 7.0 mi ESE 12.7 mph 18.4 mph 0.11 in Rain Rain
2:15 PM 61.7 °F - 61.7 °F 100% 29.45 in 7.0 mi SE 10.4 mph - 0.10 in Rain Rain
2:35 PM 61.9 °F - 61.7 °F 99% 29.45 in 10.0 mi ESE 10.4 mph - 0.19 in Rain Light Rain
2:55 PM 61.2 °F - 61.0 °F 99% 29.44 in 7.0 mi ESE 9.2 mph 17.3 mph 0.23 in Rain Rain
3:15 PM 56.8 °F - 55.6 °F 96% 29.47 in 5.0 mi West 4.6 mph 17.3 mph 0.02 in Rain Rain
3:35 PM 53.6 °F - 52.9 °F 97% 29.49 in 4.0 mi West 6.9 mph - 0.07 in Rain Heavy Rain
3:55 PM 50.9 °F - 50.9 °F 100% 29.49 in 3.0 mi WNW 9.2 mph - 0.15 in Rain Rain
4:15 PM 50.2 °F - 50.2 °F 100% 29.50 in 7.0 mi WNW 8.1 mph - 0.05 in Rain Rain
4:35 PM 50.0 °F - 50.0 °F 100% 29.53 in 4.0 mi WNW 5.8 mph - 0.10 in Rain Rain
4:55 PM 50.0 °F - 50.0 °F 100% 29.53 in 4.0 mi West 5.8 mph - 0.12 in   Heavy Drizzle
5:15 PM 48.4 °F - 48.4 °F 100% 29.57 in 3.0 mi West 11.5 mph - 0.02 in   Heavy Drizzle
5:35 PM 45.5 °F 39.2 °F 45.5 °F 100% 29.59 in 5.0 mi WNW 13.8 mph 21.9 mph 0.03 in Rain Light Rain
5:55 PM 45.0 °F 39.3 °F 45.0 °F 100% 29.60 in 5.0 mi West 11.5 mph 17.3 mph 0.05 in   Drizzle
6:15 PM 44.2 °F 40.3 °F 44.2 °F 100% 29.63 in 7.0 mi WSW 6.9 mph - N/A   Drizzle
6:35 PM 43.3 °F 39.2 °F 43.3 °F 100% 29.65 in 7.0 mi SW 6.9 mph - 0.03 in Rain Rain
6:55 PM 42.4 °F 38.8 °F 42.4 °F 100% 29.66 in 5.0 mi West 5.8 mph - 0.06 in Rain Rain
7:15 PM 41.2 °F 34.5 °F 40.8 °F 99% 29.69 in 10.0 mi West 11.5 mph - 0.02 in Rain Light Rain
7:35 PM 39.7 °F 35.6 °F 39.4 °F 99% 29.72 in 10.0 mi WSW 5.8 mph - 0.04 in Rain Rain
7:55 PM 38.5 °F 33.4 °F 38.3 °F 99% 29.72 in 5.0 mi West 6.9 mph - 0.06 in Rain Rain
8:15 PM 36.9 °F 33.1 °F 36.7 °F 99% 29.74 in 5.0 mi WNW 4.6 mph - 0.01 in Rain Rain
8:35 PM 36.0 °F 33.3 °F 36.0 °F 100% 29.76 in 5.0 mi WSW 3.5 mph - 0.03 in Rain Light Rain
8:55 PM 34.3 °F - 34.3 °F 100% 29.78 in 2.5 mi Calm Calm - 0.06 in Snow Light Snow
9:15 PM 33.3 °F - 33.3 °F 100% 29.80 in 1.5 mi Calm Calm - 0.02 in Snow Light Snow
9:35 PM 32.9 °F - 32.9 °F 100% 29.82 in 1.5 mi Calm Calm - 0.06 in Snow Light Snow
9:55 PM 32.5 °F - 32.5 °F 100% 29.81 in 0.8 mi Calm Calm - 0.10 in Snow Snow
10:15 PM 32.5 °F - 32.5 °F 100% 29.82 in 0.5 mi Calm Calm - 0.03 in Snow Snow
10:35 PM 32.5 °F - 32.5 °F 100% 29.84 in 0.8 mi Calm Calm - 0.07 in Snow Snow
10:55 PM 32.5 °F - 32.5 °F 100% 29.84 in 0.8 mi Calm Calm - 0.11 in Snow Snow
11:15 PM 32.0 °F 27.5 °F 32.0 °F 100% 29.87 in 0.5 mi WNW 4.6 mph - 0.04 in Snow Heavy Snow
11:35 PM 31.8 °F 23.9 °F 31.8 °F 100% 29.89 in 0.5 mi WNW 9.2 mph - 0.08 in Snow Heavy Snow
11:55 PM 30.0 °F 20.5 °F 30.0 °F 100% 29.86 in 0.5 mi WNW 11.5 mph 16.1 mph 0.13 in Snow Heavy Snow